Stations météo

réclame
Mon MeteoGroup
A12-CPP, Pays-Bas (6205): Température de l'air & dewpoint: 14.01.2020 02:00:00 - 20.01.2020 02:00:00 (CET)A12-CPP, Pays-Bas (6205): Vitesse du vent & gusts: 14.01.2020 02:00:00 - 20.01.2020 02:00:00 (CET)A12-CPP, Pays-Bas (6205): Direction du vent: 14.01.2020 02:00:00 - 20.01.2020 02:00:00 (CET)A12-CPP, Pays-Bas (6205): reduced air pressure: 14.01.2020 02:00:00 - 20.01.2020 02:00:00 (CET)A12-CPP, Pays-Bas (6205): visibility: 14.01.2020 02:00:00 - 20.01.2020 02:00:00 (CET)
Date & Time tt [°C] td [°C] ff [km/h] ff [knt] fx [km/h] fx [knt] dd ppp [hPa] vv [km]
20.01.2020 02:00:00 7,3 5,2 37 20 40 21 WSW 1043,7 10
20.01.2020 01:00:00 7,3 5,5 37 20 36 19 W 1043,8 10
20.01.2020 00:00:00 7,2 5,6 35 19 36 19 WSW 1044,0 10
19.01.2020 23:00:00 7,2 5,2 31 17 32 18 WSW 1043,8 10
19.01.2020 22:00:00 7,2 5,5 28 15 29 16 W 1043,9 10
19.01.2020 21:00:00 7,3 5,4 28 15 29 16 WNW 1043,8 10
19.01.2020 20:00:00 7,2 4,1 28 15 29 16 WNW 1043,3 10
19.01.2020 19:00:00 7,2 3,7 31 17 32 18 NW 1043,2 10
19.01.2020 18:00:00 7,3 3,4 29 16 29 16 NW 1042,6 10
19.01.2020 17:00:00 7,3 3,9 31 17 40 21 NW 1042,6 10
19.01.2020 16:00:00 7,3 3,9 39 21 40 21 NNW 1041,8 10
19.01.2020 15:00:00 7,3 4,3 35 19 40 21 NNW 1040,9 10
19.01.2020 14:00:00 7,4 4,8 34 18 40 21 NNW 1041,0 10
19.01.2020 13:00:00 7,4 4,6 41 22 43 23 NNW 1040,4 10
19.01.2020 12:00:00 7,5 4,5 44 24 47 25 NNW 1040,0 10
19.01.2020 11:00:00 7,7 4,6 42 23 50 27 NNW 1039,5 10
19.01.2020 10:00:00 7,7 4,5 41 22 43 23 N 1038,9 10
19.01.2020 09:00:00 7,7 4,2 42 23 47 25 N 1037,7 10
19.01.2020 08:00:00 7,7 3,8 46 25 47 25 N 1036,1 10
19.01.2020 07:00:00 7,5 3,3 46 25 61 33 N 1035,2 10
19.01.2020 06:00:00 7,7 2,5 50 27 58 31 N 1034,0 10
19.01.2020 05:00:00 7,7 1,0 55 30 58 31 N 1032,8 10
19.01.2020 04:00:00 6,0 1,9 54 29 61 33 NNE 1032,5 10
19.01.2020 03:00:00 7,3 1,5 55 30 65 35 N 1031,1 10
19.01.2020 02:00:00 7,4 1,7 57 31 58 31 N 1029,7 10
19.01.2020 01:00:00 6,3 1,9 55 30 65 35 N 1028,6 10
19.01.2020 00:00:00 5,7 1,2 52 28 72 39 NNW 1027,0 10
18.01.2020 23:00:00 6,0 2,2 52 28 54 29 NNW 1026,1 10
18.01.2020 22:00:00 4,7 2,2 57 31 65 35 N 1025,6 9
18.01.2020 21:00:00 6,6 2,4 52 28 58 31 NNW 1024,6 10
18.01.2020 20:00:00 6,5 2,7 63 34 72 39 NW 1023,6 10
18.01.2020 19:00:00 6,8 2,6 55 30 68 37 NNW 1022,7 10
18.01.2020 18:00:00 6,0 2,7 48 26 79 43 NNW 1022,2 10
18.01.2020 17:00:00 6,5 2,2 61 33 72 39 NNW 1021,2 10
18.01.2020 16:00:00 5,9 2,1 54 29 68 37 NW 1020,5 10
18.01.2020 15:00:00 6,8 2,7 46 25 61 33 NNW 1019,6 10
18.01.2020 14:00:00 7,1 1,8 57 31 58 31 NNW 1018,7 10
18.01.2020 13:00:00 6,6 2,5 55 30 58 31 NNW 1018,3 10
18.01.2020 12:00:00 6,9 2,3 46 25 58 31 NW 1017,5 10
18.01.2020 11:00:00 7,2 2,4 54 29 54 29 NW 1016,6 10
18.01.2020 10:00:00 7,0 3,0 50 27 61 33 NW 1015,7 10
18.01.2020 09:00:00 7,1 3,4 46 25 54 29 NW 1014,7 10
18.01.2020 08:00:00 7,2 2,5 46 25 54 29 NW 1013,6 10
18.01.2020 07:00:00 7,3 3,2 48 26 54 29 NW 1012,6 10
18.01.2020 06:00:00 7,4 3,3 55 30 58 31 NNW 1011,6 10
18.01.2020 05:00:00 7,5 3,6 46 25 54 29 NNW 1010,8 10
18.01.2020 04:00:00 7,6 4,4 42 23 43 23 NW 1010,3 10
18.01.2020 03:00:00 6,3 3,7 24 13 50 27 W 1009,9 10
18.01.2020 02:00:00 6,6 3,4 37 20 47 25 W 1009,4 10
18.01.2020 01:00:00 5,4 3,2 42 23 50 27 W 1009,1 10
18.01.2020 00:00:00 6,3 3,8 31 17 40 21 W 1008,6 10
17.01.2020 23:00:00 6,1 2,3 42 23 47 25 NW 1007,9 10
17.01.2020 22:00:00 5,4 3,6 48 26 50 27 NW 1007,4 10
17.01.2020 21:00:00 6,5 4,6 48 26 47 25 NW 1006,0 10
17.01.2020 20:00:00 7,9 7,1 39 21 40 21 SW 1005,9 10
17.01.2020 19:00:00 7,9 7,0 34 18 36 19 SW 1005,8 10
17.01.2020 18:00:00 7,9 7,4 31 17 36 19 SW 1005,9 10
17.01.2020 17:00:00 8,0 7,9 31 17 40 21 SSW 1005,8 10
17.01.2020 16:00:00 8,1 8,0 35 19 36 19 SSW 1005,7 9
17.01.2020 15:00:00 8,1 7,8 39 21 40 21 S 1005,8 10
17.01.2020 14:00:00 8,0 7,5 41 22 40 21 S 1006,3 10
17.01.2020 13:00:00 8,1 7,3 41 22 40 21 S 1007,0 10
17.01.2020 12:00:00 8,2 7,3 37 20 40 21 SSW 1007,4 10
17.01.2020 11:00:00 8,1 7,4 35 19 36 19 S 1007,7 10
17.01.2020 10:00:00 7,9 7,4 37 20 43 23 S 1007,5 10
17.01.2020 09:00:00 8,1 7,3 41 22 47 25 S 1007,6 10
17.01.2020 08:00:00 8,2 7,3 41 22 43 23 S 1007,5 8
17.01.2020 07:00:00 8,4 7,5 46 25 47 25 S 1007,6 9
17.01.2020 06:00:00 8,6 7,6 46 25 43 23 S 1007,1 6
17.01.2020 05:00:00 8,5 8,0 44 24 54 29 S 1007,7 8
17.01.2020 04:00:00 8,9 7,8 50 27 58 31 SSW 1007,7 10
17.01.2020 03:00:00 8,9 7,7 52 28 54 29 S 1008,2 6
17.01.2020 02:00:00 9,0 7,6 54 29 54 29 S 1008,1 4,5
17.01.2020 01:00:00 9,4 7,4 55 30 65 35 - 1008,3 7
17.01.2020 00:00:00 9,4 7,4 63 34 65 35 S 1008,0 10
16.01.2020 23:00:00 9,6 7,4 67 36 76 41 S 1008,3 10
16.01.2020 22:00:00 9,6 7,2 76 41 79 43 S 1008,2 10
16.01.2020 21:00:00 9,2 7,0 74 40 79 43 S 1008,7 10
16.01.2020 20:00:00 8,3 6,7 74 40 76 41 SSE 1009,7 10
16.01.2020 19:00:00 8,1 6,2 72 39 72 39 SSE 1010,8 10
16.01.2020 18:00:00 8,0 6,1 59 32 61 33 SSE 1011,9 10
16.01.2020 17:00:00 8,0 5,7 59 32 58 31 SSE 1013,3 10
16.01.2020 16:00:00 8,0 6,0 52 28 50 27 S 1014,4 10
16.01.2020 15:00:00 7,9 6,8 44 24 47 25 S 1015,5 10
16.01.2020 14:00:00 7,9 6,8 44 24 47 25 S 1016,3 10
16.01.2020 13:00:00 7,9 6,6 44 24 47 25 S 1017,2 10
16.01.2020 12:00:00 7,9 6,6 42 23 47 25 SSW 1017,4 10
16.01.2020 11:00:00 7,6 6,4 39 21 43 23 SSW 1017,4 10
16.01.2020 10:00:00 7,7 6,2 44 24 47 25 SW 1017,4 10
16.01.2020 09:00:00 7,8 6,1 50 27 54 29 SW 1017,1 10
16.01.2020 08:00:00 7,8 5,8 54 29 58 31 SW 1016,4 10
16.01.2020 07:00:00 7,7 5,7 57 31 58 31 SW 1015,9 10
16.01.2020 06:00:00 7,8 5,5 55 30 58 31 SW 1015,1 10
16.01.2020 05:00:00 7,9 5,3 57 31 58 31 WSW 1014,5 10
16.01.2020 04:00:00 7,9 5,1 63 34 61 33 WSW 1013,8 10
16.01.2020 03:00:00 7,9 5,0 67 36 68 37 WSW 1012,6 10
16.01.2020 02:00:00 8,1 4,6 70 38 72 39 SW 1011,5 10
16.01.2020 01:00:00 8,2 4,7 58 31 68 37 SW 1010,6 16
16.01.2020 00:00:00 8,2 4,5 70 38 68 37 SW 1009,4 10
15.01.2020 23:00:00 8,2 4,7 67 36 72 39 SW 1008,1 10
15.01.2020 22:00:00 8,3 4,6 67 36 72 39 SW 1007,2 10
15.01.2020 21:00:00 8,3 4,6 68 37 72 39 SW 1006,1 10
15.01.2020 20:00:00 8,2 4,6 67 36 65 35 SW 1005,4 10
15.01.2020 19:00:00 8,1 4,5 59 32 65 35 SW 1004,4 10
15.01.2020 18:00:00 8,0 4,4 59 32 61 33 SW 1003,2 10
15.01.2020 17:00:00 7,9 4,8 57 31 61 33 SW 1002,0 10
15.01.2020 16:00:00 8,0 5,0 57 31 58 31 SW 1000,8 10
15.01.2020 15:00:00 7,9 5,3 54 29 58 31 SW 1000,0 10
15.01.2020 14:00:00 7,9 5,5 54 29 58 31 SW 999,2 10
15.01.2020 13:00:00 8,0 5,6 54 29 58 31 SW 999,1 10
15.01.2020 12:00:00 7,8 6,0 52 28 58 31 SW 998,7 10
15.01.2020 11:00:00 7,8 5,5 44 24 58 31 SW 998,2 10
15.01.2020 10:00:00 7,8 4,7 52 28 58 31 SW 997,8 10
15.01.2020 09:00:00 7,4 3,8 48 26 58 31 SW 996,8 10
15.01.2020 08:00:00 7,9 3,0 52 28 54 29 SW 995,6 10
15.01.2020 07:00:00 8,1 2,9 50 27 58 31 SW 995,1 10
15.01.2020 06:00:00 8,5 4,1 48 26 50 27 SW 994,7 10
15.01.2020 05:00:00 8,2 5,9 41 22 43 23 SW 993,9 10
15.01.2020 04:00:00 8,3 5,7 46 25 47 25 SW 993,3 10
15.01.2020 03:00:00 8,3 5,9 42 23 43 23 WSW 992,5 10
15.01.2020 02:00:00 8,7 6,9 42 23 43 23 WSW 991,8 10
15.01.2020 01:00:00 8,8 6,8 50 27 54 29 WSW 990,3 10
15.01.2020 00:00:00 9,3 7,5 61 33 65 35 WSW 988,8 10
14.01.2020 23:00:00 10,0 8,9 74 40 79 43 SW 986,6 8
14.01.2020 22:00:00 10,3 9,0 74 40 83 45 SSW 984,6 9
14.01.2020 21:00:00 10,5 9,3 80 43 94 51 S 983,7 8
14.01.2020 20:00:00 10,3 9,4 83 45 90 49 S 983,5 7
14.01.2020 19:00:00 9,6 9,1 72 39 83 45 S 983,9 9
14.01.2020 18:00:00 7,7 7,6 57 31 61 33 SSE 986,3 2,1
14.01.2020 17:00:00 8,1 7,2 52 28 54 29 S 989,0 2,4
14.01.2020 16:00:00 7,8 6,2 42 23 54 29 S 991,6 6
14.01.2020 15:00:00 7,9 5,7 50 27 58 31 S 992,6 10
14.01.2020 14:00:00 7,7 5,8 46 25 50 27 S 993,1 10
14.01.2020 13:00:00 7,6 5,8 44 24 47 25 S 993,8 10
14.01.2020 12:00:00 7,6 5,7 42 23 50 27 SW 994,2 10
14.01.2020 11:00:00 7,9 5,4 52 28 58 31 SW 994,6 10
14.01.2020 10:00:00 7,9 4,7 59 32 65 35 SW 993,9 10
14.01.2020 09:00:00 7,8 4,8 63 34 72 39 SW 992,9 10
14.01.2020 08:00:00 7,9 4,7 68 37 72 39 SW 992,0 10
14.01.2020 07:00:00 8,1 5,1 59 32 65 35 SW 991,7 10
14.01.2020 06:00:00 8,1 5,1 59 32 61 33 SW 990,9 10
14.01.2020 05:00:00 7,9 5,5 63 34 65 35 SW 990,2 10
14.01.2020 04:00:00 7,7 5,4 54 29 58 31 SW 990,3 10
14.01.2020 03:00:00 7,6 5,2 59 32 65 35 SW 990,2 10
14.01.2020 02:00:00 8,0 4,8 63 34 65 35 SW 989,8 10

tt = Température de l'air
td = dewpoint
ff = Vitesse du vent
fx = gusts
dd = Direction du vent
ppp = reduced air pressure
vv = visibility

stations d'obs. à proximité